This is the latest recevied weather packets stored in our database for station/object KD2DXJ. If no packets are shown the sender has not sent any weather packets the latest 10 day(s).
| Time | Temp. | Humidity | Pressure | Rain* | Wind** | Luminosity | Snow |
|---|---|---|---|---|---|---|---|
| 1777476751 | 15.56° C | 72% | 1010.8 hPa | 0 mm | - | 153 W/m² | - |
| 1777476447 | 15.56° C | 74% | 1010.8 hPa | 0 mm | - | 92 W/m² | - |
| 1777476144 | 15.56° C | 75% | 1010.7 hPa | 0 mm | - | 163 W/m² | - |
| 1777475840 | 15.56° C | 74% | 1010.8 hPa | 0 mm | - | 105 W/m² | - |
| 1777475536 | 15° C | 75% | 1010.9 hPa | 0 mm | - | 145 W/m² | - |
| 1777475232 | 15° C | 73% | 1011.1 hPa | 0 mm | - | 149 W/m² | - |
| 1777474928 | 15.56° C | 73% | 1011 hPa | 0 mm | - | 152 W/m² | - |
| 1777474623 | 15.56° C | 74% | 1011 hPa | 0 mm | - | 158 W/m² | - |
| 1777474320 | 15° C | 74% | 1011.1 hPa | 0 mm | - | 184 W/m² | - |
| 1777474017 | 15° C | 75% | 1011.2 hPa | 0 mm | - | 166 W/m² | - |
| 1777473715 | 15° C | 74% | 1011 hPa | 0 mm | - | 153 W/m² | - |
| 1777473411 | 15° C | 75% | 1011.1 hPa | 0 mm | - | 145 W/m² | - |
| 1777473107 | 15° C | 74% | 1011.1 hPa | 0 mm | - | 138 W/m² | - |
| 1777472804 | 14.44° C | 75% | 1011.4 hPa | 0 mm | - | 132 W/m² | - |
| 1777472500 | 14.44° C | 74% | 1011.2 hPa | 0 mm | - | 131 W/m² | - |
| 1777472197 | 14.44° C | 75% | 1011.4 hPa | 0 mm | - | 121 W/m² | - |
| 1777471893 | 14.44° C | 76% | 1011.5 hPa | 0 mm | - | 98 W/m² | - |
| 1777471590 | 13.89° C | 75% | 1011.2 hPa | 0 mm | - | 91 W/m² | - |
| 1777471286 | 14.44° C | 74% | 1011.4 hPa | 0 mm | - | 78 W/m² | - |
| 1777470983 | 14.44° C | 73% | 1011.5 hPa | 0 mm | - | 105 W/m² | - |
| 1777470680 | 14.44° C | 74% | 1011.5 hPa | 0 mm | - | 124 W/m² | - |
| 1777470376 | 13.89° C | 73% | 1011.5 hPa | 0 mm | - | 122 W/m² | - |
| 1777470073 | 13.89° C | 73% | 1011.5 hPa | 0 mm | - | 75 W/m² | - |
| 1777469769 | 13.89° C | 74% | 1011.6 hPa | 0 mm | - | 104 W/m² | - |
| 1777469465 | 13.89° C | 74% | 1011.9 hPa | 0 mm | - | 75 W/m² | - |
* Rain latest hour (hover to see other rain measurements)
** Current wind speed in m/s (hover to see current wind gust speed)